Temp
22 22 21 21 22 23 23 21 22 22 21 21 21 21 21 21 22 23 25 24 23 23 23 22 24 24 22 21 22 21 21 20 19 18 18 18 18 18 17 17 16 17 16 15 14 15 16 17 17 18 20 20 20 21 19 17 17 19 20 20 19 18 18 18 19 19 18 18 18 18 18 18 18 18 17 17 17 17 17 17 17 17 17 17 17 17
21 21 21 22 22 22 21 19 20 21 20 21 21 21 21 22 22 23 24 23 23 24 23 22 24 24 22 21 22 21 21 20 18 18 18 18 17 17 17 17 17 17 16 15 15 15 16 16 15 17 19 18 18 19 18 16 17 19 21 20 19 19 18 19 19 19 19 18 18 18 18 18 18 18 17 17 17 17 17 17 17 17 17 17 17 17
20 21 22 21 20 19 19 19 20 21 21 21 21 21 22 22 22 23 24 23 23 24 24 23 24 23 22 21 21 21 21 20 18 18 18 18 17 17 17 17 17 16 15 15 15 14 15 16 15 16 17 17 18 17 17 17 17 19 21 20 19 19 19 19 19 19 19 18 18 18 18 18 18 17 17 17 17 17 17 17 17 17 17 17 17 17
20 21 22 20 19 20 20 20 20 21 21 22 22 21 21 21 22 22 23 24 23 23 22 23 24 23 22 21 21 21 21 20 19 18 18 18 18 18 17 17 17 17 16 15 15 15 15 15 15 15 16 16 17 17 17 17 17 19 21 20 19 19 19 19 19 19 19 19 18 18 18 18 18 17 17 17 17 17 17 17 17 17 17 17 17 17
21 22 21 20 20 21 21 21 21 21 22 22 22 22 22 22 22 22 22 23 23 22 21 23 23 22 22 22 22 21 21 20 19 19 19 18 18 18 17 17 17 17 16 15 15 15 15 15 15 15 16 16 16 17 17 18 18 19 20 19 19 19 19 19 19 19 19 19 18 18 18 17 17 17 17 17 17 17 17 17 17 17 17 17 17 17
21 22 20 21 21 21 21 21 21 21 21 22 22 23 23 23 23 22 23 23 23 21 21 21 21 21 21 22 22 22 21 21 19 19 19 18 18 19 18 17 17 17 17 16 16 15 15 15 15 16 16 16 16 17 17 17 18 19 19 19 19 19 19 19 19 19 19 19 18 18 17 17 17 16 17 17 17 17 17 17 17 17 17 17 17 17
22 22 21 22 22 21 21 20 20 21 21 21 22 22 23 23 22 23 23 22 21 21 20 20 21 21 21 22 23 22 22 21 20 19 19 19 19 19 18 17 17 17 17 17 16 16 15 15 16 16 16 16 17 17 17 18 18 18 19 19 19 19 19 19 19 19 19 19 19 18 18 17 17 17 17 17 17 17 17 17 16 16 16 17 17 17
22 23 21 21 22 21 21 21 21 21 22 22 21 21 22 23 23 23 23 22 21 21 21 21 21 21 21 22 21 20 21 21 21 20 20 19 19 19 18 18 17 17 17 17 16 16 16 16 16 16 16 17 17 17 18 18 18 18 19 19 19 19 19 19 19 19 19 19 19 18 18 18 18 18 17 16 16 16 16 16 16 16 16 16 16 17
21 23 22 21 22 22 22 23 22 21 23 23 21 21 22 22 22 23 23 22 20 21 21 21 21 20 21 21 20 20 21 21 21 21 20 20 20 19 18 18 18 18 17 17 16 16 16 16 16 17 17 17 17 18 18 18 18 19 19 19 19 19 19 19 19 19 19 19 19 18 18 18 18 18 17 16 16 16 16 16 16 16 16 16 16 16
22 23 23 22 22 23 24 24 22 23 24 22 21 21 21 21 21 21 22 22 20 20 21 20 20 20 20 21 21 21 22 21 21 21 21 20 19 19 18 18 18 18 17 17 17 17 17 17 17 17 17 17 17 17 17 18 18 19 19 19 19 19 19 19 19 19 19 19 19 18 18 18 18 17 17 16 16 16 16 16 16 16 16 16 16 16
22 21 22 22 23 24 24 22 21 23 23 21 22 22 22 21 21 20 20 20 21 20 20 20 20 20 20 21 21 20 21 20 19 21 21 20 19 19 18 18 18 18 18 17 17 17 17 17 17 17 16 15 15 15 15 17 18 19 19 19 19 19 19 19 18 18 18 18 19 18 18 18 18 17 16 16 16 16 16 16 16 16 16 16 16 16
22 22 22 23 23 23 24 23 21 21 21 22 23 22 22 21 20 20 20 20 20 20 20 20 19 20 20 20 20 19 19 18 17 19 20 20 19 19 18 18 18 18 18 17 18 17 17 17 17 16 16 15 15 14 14 15 18 18 18 19 19 18 18 18 18 18 18 18 18 19 19 18 18 18 17 16 16 16 16 16 16 16 16 16 16 16
22 23 22 22 23 23 24 23 21 21 21 22 22 21 21 20 20 20 20 19 20 19 20 19 19 20 20 20 19 18 18 17 17 18 18 18 19 18 18 18 18 18 18 17 17 17 17 17 16 16 15 15 15 15 14 16 17 18 18 19 18 18 18 18 18 18 18 18 18 19 19 18 18 18 17 17 16 16 16 16 16 16 16 16 16 16
21 21 21 23 23 23 23 23 22 22 22 22 22 21 20 20 19 19 18 17 18 19 19 18 19 20 20 20 19 18 17 17 17 17 17 17 18 18 18 18 18 18 18 17 17 17 17 17 16 16 15 14 14 14 15 16 17 18 18 17 17 17 18 18 19 18 18 18 18 18 18 18 18 18 17 17 17 17 16 16 16 16 16 16 16 16
20 20 22 23 23 23 23 23 23 22 22 21 21 21 21 20 20 19 19 19 19 19 18 18 19 20 20 20 19 17 17 17 17 17 17 17 17 17 17 17 18 17 17 17 17 17 16 15 15 15 14 14 13 13 15 17 17 18 17 15 15 17 18 18 17 17 17 18 18 18 18 18 18 18 17 17 17 17 17 16 16 16 16 16 16 16
20 20 22 22 22 23 23 23 23 23 22 20 19 20 21 20 21 19 18 18 19 19 19 19 19 18 19 19 18 17 17 17 17 17 17 16 16 16 16 16 16 16 16 16 16 16 14 13 14 14 13 14 14 13 14 16 17 17 15 14 15 16 17 16 15 15 16 17 18 18 18 18 18 18 17 17 17 17 17 17 17 17 17 16 16 16
20 20 21 22 22 23 23 22 23 22 22 20 19 21 20 19 21 20 17 16 17 19 19 18 18 18 18 19 19 18 18 17 17 17 17 16 16 16 15 15 15 14 14 14 14 15 14 13 14 14 13 14 14 13 13 15 17 17 16 15 14 14 15 14 14 16 17 17 17 18 18 18 18 18 18 17 18 17 16 17 17 17 17 17 17 17
20 21 21 21 22 23 21 22 23 22 21 21 21 21 19 18 20 20 19 17 17 19 18 17 18 18 18 19 19 18 18 18 17 16 16 17 17 16 15 14 14 14 13 13 13 14 13 13 13 13 14 14 15 14 14 15 16 17 16 15 14 13 14 15 16 17 17 16 17 17 17 18 18 18 18 18 18 17 17 17 17 17 17 17 17 17
20 21 21 20 21 22 21 22 23 22 21 21 21 21 20 20 20 20 19 19 18 18 18 17 17 17 18 19 18 18 19 18 17 16 16 16 16 16 14 14 14 14 14 14 14 14 13 13 13 13 14 14 14 14 15 15 16 16 16 15 14 13 14 16 17 17 17 16 17 17 17 18 18 18 18 18 18 17 17 17 17 17 17 17 17 17
19 20 20 20 20 20 21 21 21 21 21 21 21 21 20 20 20 19 18 19 19 18 17 17 17 17 18 18 18 19 18 17 17 16 16 16 15 15 15 14 14 14 14 14 14 14 13 13 13 13 14 14 14 15 15 16 16 16 16 15 14 14 14 15 17 17 16 16 17 17 17 17 17 18 18 18 18 17 17 17 17 17 17 17 17 17
19 19 20 21 20 19 20 20 20 20 21 21 21 21 20 18 18 19 18 17 18 19 17 17 18 18 18 18 18 18 17 16 16 16 16 15 15 15 14 15 15 15 15 14 14 14 14 13 13 14 14 14 15 15 15 16 16 16 16 15 15 14 14 15 15 16 16 16 16 17 17 16 17 18 18 18 18 18 17 17 17 17 17 17 17 17
19 19 19 20 20 19 20 20 19 20 20 20 20 19 18 18 18 19 18 16 17 18 17 17 17 18 18 17 16 17 17 16 16 16 16 15 16 16 15 14 15 15 15 14 14 15 13 13 13 14 14 14 14 14 15 16 15 15 14 14 14 14 13 14 14 15 15 16 16 17 17 16 16 17 17 18 18 17 17 17 17 17 17 17 17 17
18 19 20 20 19 18 19 19 18 19 19 19 19 17 17 18 18 20 19 17 17 17 16 17 18 18 18 16 16 17 16 16 16 16 16 16 16 16 15 15 15 15 15 15 15 14 12 13 13 14 14 14 14 14 14 14 14 13 13 13 14 13 13 14 14 15 15 15 16 16 16 16 16 16 17 17 17 17 16 16 16 17 17 16 17 16
18 19 19 19 18 18 18 18 18 18 19 19 18 17 17 17 17 18 18 17 17 17 16 17 17 18 18 16 15 17 16 16 15 15 15 15 15 15 15 15 14 14 14 14 15 13 12 12 13 13 14 14 14 14 14 14 13 13 12 12 13 13 13 14 15 15 15 15 15 16 16 16 16 16 16 17 17 17 16 16 16 16 16 16 16 16
19 18 18 19 18 17 17 18 18 19 18 18 17 16 16 17 17 17 16 17 18 17 17 18 17 17 17 15 15 16 16 15 15 15 15 15 15 15 15 14 14 14 14 13 14 14 13 13 13 12 13 14 14 15 15 14 13 12 12 12 13 13 13 14 14 15 15 15 16 16 16 16 16 16 16 17 17 16 16 16 16 16 16 17 17 16
19 17 18 19 18 17 17 17 18 18 17 16 16 16 16 16 17 18 17 18 18 16 16 18 17 17 16 15 15 16 15 15 15 15 15 15 15 15 15 15 14 14 14 14 14 14 14 13 12 12 13 14 14 15 15 15 14 12 12 12 13 13 13 14 14 15 15 15 16 16 16 15 15 15 16 16 16 15 15 16 16 16 16 16 16 16
18 16 17 19 18 18 18 17 16 17 17 16 16 16 16 16 17 18 18 18 17 16 16 17 16 16 16 15 15 15 15 15 15 15 15 15 15 15 15 14 14 14 14 14 14 14 14 14 13 12 13 14 14 15 15 16 15 14 13 13 13 13 13 14 14 14 15 15 16 16 15 15 15 15 15 16 16 16 16 15 15 16 16 15 16 16
18 16 15 16 16 16 16 16 16 16 17 16 16 16 16 16 17 18 18 17 16 16 17 16 15 16 16 15 14 14 15 15 15 15 15 15 15 15 14 14 14 14 14 14 14 14 14 14 13 12 13 14 14 15 15 15 16 15 15 14 13 13 14 14 14 14 15 15 16 15 15 15 16 15 15 16 16 16 16 16 15 16 15 15 15 15
18 17 15 15 15 14 14 15 16 16 16 15 16 16 16 17 17 18 17 16 16 17 17 16 15 15 15 14 14 13 13 14 15 15 15 15 15 14 14 15 15 14 14 14 14 14 14 14 13 12 12 13 14 15 15 15 16 16 16 15 15 14 14 14 14 14 15 15 15 15 15 15 16 15 15 16 16 16 15 15 15 15 15 14 15 15
16 16 15 15 15 13 13 13 15 16 16 15 15 14 15 16 16 17 16 14 15 16 15 14 15 14 13 12 12 12 12 13 14 14 14 14 14 15 15 15 15 14 14 14 14 13 13 13 12 11 12 13 13 14 15 15 16 16 16 16 15 15 15 15 15 15 15 15 15 15 15 15 15 15 15 15 15 14 14 14 14 14 14 14 14 15
17 16 14 15 15 13 13 13 15 16 16 15 14 13 13 14 15 15 14 13 14 15 13 13 15 14 13 12 11 11 11 12 13 13 12 12 13 14 15 15 15 15 14 13 13 12 12 12 11 11 12 12 13 14 15 15 16 16 16 16 16 16 16 16 16 15 15 15 15 15 15 15 14 14 14 14 14 14 14 14 14 14 14 14 14 14
17 15 14 15 16 14 13 13 14 15 15 15 14 13 13 14 13 13 12 11 12 14 14 15 15 14 13 12 11 11 11 11 11 11 11 11 11 12 14 14 14 14 13 12 12 12 12 12 10 10 11 12 12 14 15 15 16 16 16 16 16 16 16 16 16 16 16 16 16 16 16 16 16 15 15 15 15 16 16 15 15 15 15 15 14 14
15 15 15 15 15 14 12 13 14 15 15 15 14 12 11 12 12 11 10 9 9 11 13 14 13 11 11 11 11 10 10 10 10 10 10 10 10 10 11 11 12 13 12 11 11 11 11 10 9 10 11 12 12 13 14 15 16 16 16 16 16 16 16 16 16 16 16 16 16 16 16 16 16 16 16 16 16 16 16 16 16 15 15 15 15 15
14 16 15 14 15 14 12 12 14 14 14 13 11 10 10 11 11 11 9 8 8 9 10 11 10 10 10 10 10 10 10 10 10 10 10 10 10 10 10 9 10 10 10 10 10 10 10 9 10 10 11 12 12 12 14 15 15 15 15 15 16 16 16 16 16 16 16 15 15 15 16 16 15 15 15 15 15 15 15 15 15 15 15 15 15 15
14 15 14 13 14 13 11 13 14 13 12 11 9 9 10 10 9 9 9 8 8 9 9 9 9 10 10 10 10 10 10 9 9 9 9 9 9 10 10 10 10 10 10 10 10 9 9 9 10 10 11 12 12 12 13 13 14 15 15 15 15 15 15 15 15 15 15 15 15 15 15 15 15 15 15 15 15 15 15 15 15 15 15 15 15 15
15 15 13 12 13 12 12 13 13 11 10 10 9 9 10 10 10 11 10 9 9 9 9 9 9 9 10 10 10 10 10 10 10 10 9 9 9 10 10 10 10 10 10 9 9 9 9 9 10 10 10 11 11 11 12 12 13 14 15 15 15 15 15 15 15 15 15 15 15 15 15 15 15 15 15 15 15 15 15 15 14 15 15 14 14 14
14 14 14 13 12 12 12 12 11 10 10 10 10 10 9 10 10 11 10 9 9 8 8 9 9 9 10 10 10 10 10 10 10 10 10 9 9 9 9 9 10 10 10 9 9 10 10 11 11 11 11 11 11 11 12 12 12 12 13 14 14 14 14 14 14 14 14 14 14 14 14 14 14 14 14 14 14 14 14 14 14 14 14 14 14 14
13 14 14 14 12 11 12 11 9 9 10 10 10 9 9 9 9 9 10 9 9 9 8 8 9 9 9 10 10 10 10 10 10 10 10 10 9 9 9 9 9 10 10 10 10 10 11 11 11 11 12 12 12 12 12 12 12 12 12 13 13 14 14 14 14 14 14 14 14 14 14 14 14 14 14 14 14 14 14 14 14 14 14 14 14 14
12 12 13 14 12 11 12 12 10 10 9 9 9 9 9 8 7 9 10 9 9 9 8 8 9 9 9 9 9 10 11 10 9 9 10 9 9 9 9 8 9 10 11 11 11 11 11 11 11 12 12 12 12 12 12 13 12 12 12 12 13 13 13 13 13 14 14 14 14 14 14 14 14 14 14 14 14 13 13 13 13 13 13 13 13 13
11 11 12 12 11 11 11 11 9 8 8 8 8 9 9 7 7 9 10 9 8 9 8 8 9 9 8 8 8 9 10 9 9 9 9 8 8 8 8 8 8 9 10 10 10 11 11 11 11 11 12 11 11 12 12 13 13 13 12 12 13 13 13 13 13 13 13 14 14 14 14 13 14 13 13 13 13 13 13 13 13 13 13 13 12 12
10 10 10 10 10 10 10 9 7 7 8 8 8 8 8 8 9 10 9 8 8 8 8 8 9 8 8 8 8 8 9 9 9 9 8 7 7 7 7 7 8 8 8 9 10 10 10 11 11 11 11 11 11 11 12 12 12 13 13 13 13 13 13 13 13 13 14 14 14 13 13 13 13 13 13 13 13 13 13 13 13 12 12 12 12 12
8 9 9 9 9 9 9 8 7 7 8 8 8 8 8 9 9 9 8 8 9 8 8 8 8 8 8 8 8 8 8 8 8 7 7 7 7 7 6 6 7 8 8 9 9 10 10 10 11 11 11 11 11 11 11 11 11 12 13 13 13 13 14 14 14 14 14 14 13 13 13 13 13 13 13 13 13 13 13 12 12 12 12 12 12 12
8 8 8 8 8 8 8 7 7 7 7 8 8 8 8 8 8 8 8 8 8 8 8 8 8 8 8 8 8 8 8 7 7 7 7 7 7 6 6 6 7 7 8 9 9 9 9 9 10 10 10 11 11 11 11 11 11 12 12 12 13 13 13 13 13 13 13 13 13 13 13 13 13 13 13 13 13 12 12 12 12 12 12 12 11 11
8 8 8 7 7 8 7 7 6 7 7 7 8 7 7 7 8 8 8 8 8 8 8 8 8 7 8 8 8 8 8 8 8 8 7 8 7 6 5 6 7 7 8 8 8 8 8 9 9 9 10 10 10 11 11 11 11 12 12 12 13 13 13 13 13 13 13 13 13 13 13 13 13 13 13 13 12 12 12 12 12 12 11 11 11 11
8 8 8 7 7 7 7 6 7 7 7 7 7 7 7 7 8 9 9 8 8 8 8 8 8 8 7 8 8 8 8 8 7 7 7 7 7 5 5 6 6 7 7 7 7 8 8 8 8 8 9 9 10 10 10 10 10 11 11 12 13 13 13 13 13 13 13 13 12 12 12 12 12 12 12 12 12 12 12 12 12 12 11 11 11 11
8 8 8 8 7 7 7 7 7 7 7 7 7 7 7 8 8 8 8 8 8 8 8 8 8 8 8 8 8 8 8 7 7 7 6 7 6 5 4 5 6 6 6 6 6 7 7 7 7 8 8 9 9 10 10 10 10 10 11 11 11 12 12 13 13 12 12 12 12 12 12 12 12 12 12 12 12 12 12 12 12 12 11 11 11 10
8 8 8 8 7 7 7 7 7 7 7 7 7 7 7 7 7 7 8 8 7 7 7 7 7 7 7 7 7 7 7 7 7 6 6 6 6 4 4 4 5 6 6 6 6 6 6 6 6 7 7 7 8 9 9 10 10 10 10 10 11 11 11 11 12 12 12 12 12 12 11 11 11 11 11 11 11 11 11 11 11 11 11 11 10 10
8 8 8 7 7 7 7 7 7 7 6 6 6 6 6 7 7 7 7 7 7 6 6 5 6 6 6 6 7 7 6 6 6 6 6 5 4 3 3 4 5 5 5 5 6 6 6 6 6 6 6 6 7 8 8 9 9 9 10 10 10 11 11 11 11 11 11 11 11 11 11 11 11 11 11 11 11 11 11 11 11 10 10 10 10 10
7 8 7 7 6 6 6 7 7 7 7 7 7 6 6 6 6 7 7 6 7 7 6 5 5 5 5 5 5 5 6 6 5 4 5 5 3 2 3 3 3 3 4 4 5 5 5 5 5 5 5 6 6 7 7 8 9 9 9 9 10 10 10 10 11 11 11 11 11 11 11 11 11 11 11 10 10 10 10 10 10 10 10 10 10 9
7 7 7 6 6 6 6 7 7 7 7 7 7 6 6 6 6 6 6 6 6 7 6 6 5 4 4 3 3 4 5 4 3 2 2 3 2 2 2 2 2 2 2 3 3 4 4 4 4 4 5 5 6 6 6 7 8 8 9 9 9 9 10 10 10 10 10 11 11 11 11 11 10 10 10 10 10 9 9 9 9 9 9 9 9 9
7 7 7 7 7 7 7 7 7 6 7 7 7 7 6 5 5 6 6 6 6 5 4 5 5 5 4 3 2 2 3 2 1 1 1 1 1 1 1 1 1 1 1 1 2 2 3 3 3 3 4 4 4 5 5 6 7 7 8 8 9 9 9 10 10 10 10 10 10 10 10 10 10 9 9 9 8 8 8 8 8 8 8 8 8 8
Height
750 758 763 763 760 756 755 758 757 757 762 764 765 766 764 763 758 748 741 737 738 742 747 749 745 744 749 749 747 749 751 756 759 762 762 762 763 763 764 766 767 769 770 770 771 771 772 773 775 775 776 778 778 778 780 783 785 784 784 786 788 791 794 797 799 800 802 803 804 805 806 806 807 808 809 810 811 812 813 814 814 814 815 815 815 815
754 763 762 754 753 753 757 762 759 759 763 763 765 765 762 760 755 746 742 740 738 740 748 749 745 746 750 749 747 747 750 755 757 760 762 762 763 764 765 767 768 769 771 772 772 772 771 773 775 775 776 777 777 777 779 783 786 786 785 786 789 791 794 796 798 800 801 803 804 805 806 806 807 808 809 810 811 812 813 813 814 815 815 816 816 816
761 762 754 751 755 758 761 762 760 760 761 763 764 763 760 759 755 748 743 741 739 740 746 746 744 748 751 750 749 747 746 750 752 753 755 759 762 764 765 766 767 769 772 773 773 773 772 772 774 774 775 777 777 778 780 784 786 785 785 787 790 792 794 796 798 800 802 803 804 805 806 806 807 808 809 810 811 812 813 813 814 814 815 816 817 817
767 756 747 751 755 755 757 758 758 759 759 760 760 760 760 759 759 755 746 743 742 744 749 748 745 750 753 752 750 748 748 750 752 753 754 757 759 760 761 762 763 766 770 772 773 774 773 773 774 774 775 777 778 779 782 785 786 785 785 788 790 792 794 797 799 801 802 803 805 806 806 807 807 808 810 811 812 813 813 814 814 815 815 816 817 818
760 747 745 750 751 752 755 757 758 758 758 758 757 757 757 755 756 757 752 747 745 749 752 750 751 756 756 755 751 749 750 752 755 757 757 759 759 760 761 762 761 762 765 769 771 772 773 773 773 774 775 777 778 780 782 784 784 784 785 788 791 793 795 797 800 801 803 804 805 806 807 808 809 810 811 811 812 813 814 814 815 815 816 816 817 818
753 743 744 748 749 752 755 757 757 757 760 758 753 751 750 750 753 754 751 749 751 757 756 754 763 767 759 756 754 751 752 754 757 759 760 761 761 761 763 764 763 763 764 767 769 770 772 773 774 775 776 778 779 782 784 785 785 786 786 789 791 793 795 798 800 802 803 803 804 805 806 808 809 810 812 812 813 814 814 815 816 817 817 817 818 818
747 741 742 746 748 751 755 758 755 756 761 759 752 749 748 750 753 751 749 753 760 764 760 758 766 771 762 754 754 754 754 755 757 759 760 761 761 761 763 764 763 764 766 768 770 771 772 773 774 775 776 778 779 782 784 785 787 788 788 789 792 793 795 798 800 801 802 803 804 805 806 808 809 810 812 813 814 814 815 816 817 818 818 819 819 819
744 740 744 747 747 751 754 753 750 751 756 756 751 750 749 750 753 752 750 755 761 761 759 759 762 769 766 757 758 759 756 757 757 758 759 759 759 759 761 764 764 764 766 769 770 771 772 772 773 774 776 777 779 780 782 784 786 787 788 790 792 793 795 797 800 801 802 803 804 805 807 809 810 810 812 813 814 815 816 817 818 819 820 820 821 821
743 741 742 745 747 749 747 742 743 747 749 748 747 750 749 749 751 752 753 757 764 763 764 765 763 771 772 760 759 761 758 760 758 754 756 755 756 758 759 763 764 764 766 767 769 769 770 771 771 773 774 775 777 777 777 779 782 784 786 789 791 793 794 796 799 801 802 804 805 807 808 809 811 811 812 813 815 816 816 817 818 819 820 821 822 822
740 738 737 742 745 743 737 736 739 741 743 743 745 750 750 753 756 756 756 758 765 771 772 771 768 774 776 760 756 761 758 762 761 753 752 753 754 756 758 761 762 763 765 767 768 768 768 769 769 771 773 775 777 777 776 777 780 783 785 787 789 791 793 795 798 800 802 805 806 807 808 809 811 811 812 813 815 816 817 818 819 819 821 821 822 823
738 736 736 738 738 736 732 737 741 738 740 743 745 748 750 755 759 761 765 763 770 780 777 775 772 773 778 768 761 764 761 763 764 755 751 751 753 756 757 759 760 761 763 766 769 769 769 770 770 772 774 778 781 783 783 781 780 782 784 785 787 789 792 794 797 800 802 804 806 806 807 808 810 811 812 813 815 816 817 818 819 820 821 822 823 823
740 736 737 734 732 733 732 738 743 740 742 743 745 749 754 762 764 766 771 769 779 788 778 775 777 774 777 772 765 765 763 765 766 758 754 752 751 755 757 758 759 760 763 766 768 769 770 770 771 773 773 775 778 782 786 784 779 780 782 784 786 789 792 795 798 800 802 803 804 805 806 807 809 810 811 813 814 816 817 819 820 820 821 822 823 823
742 738 738 734 729 730 734 741 745 744 744 745 748 755 764 775 778 777 781 783 786 786 776 776 779 775 775 771 766 767 765 765 763 758 757 755 752 753 756 758 759 760 763 766 768 768 769 770 770 770 771 773 775 777 782 781 777 778 780 782 784 788 792 794 796 797 798 800 801 803 805 807 808 810 811 813 814 816 817 819 820 820 821 822 823 823
748 745 740 736 732 730 734 742 747 747 747 746 749 756 767 781 790 791 796 798 791 782 779 780 778 776 777 770 766 769 766 763 760 757 756 757 756 754 755 758 759 761 764 766 768 768 768 768 767 768 770 773 778 779 779 777 775 777 778 781 785 789 792 792 792 794 796 799 802 804 806 807 808 809 810 812 814 815 817 819 820 821 821 822 823 823
757 757 743 737 737 733 733 737 739 742 745 749 749 752 761 770 778 785 788 787 786 783 781 778 775 778 778 770 767 768 765 761 759 758 757 759 761 758 758 760 761 763 765 767 768 768 768 767 766 769 773 776 782 784 780 776 775 777 779 784 789 791 792 794 795 797 799 801 803 805 806 807 808 809 810 812 813 815 817 819 820 821 822 823 823 823
760 757 740 735 736 732 733 733 733 737 745 754 754 753 757 757 759 775 785 783 782 783 780 778 778 781 776 768 767 768 765 761 760 760 760 763 765 764 764 765 765 767 768 769 769 768 770 771 769 771 776 779 783 785 783 777 776 777 780 785 788 789 792 798 802 804 805 804 804 804 806 807 809 809 810 812 813 815 816 818 820 822 822 823 823 823
759 754 739 736 735 730 732 732 731 738 746 754 755 752 755 753 751 769 788 790 786 783 784 785 782 781 778 770 766 767 767 765 765 764 765 767 767 769 772 771 770 773 774 775 774 771 772 774 772 771 775 778 780 784 785 780 777 778 780 782 784 786 792 800 804 804 804 804 803 804 805 807 808 809 810 811 813 815 817 819 821 822 823 823 823 823
751 750 742 739 737 731 731 731 730 734 741 749 752 748 751 756 755 763 779 790 793 789 787 788 786 783 784 778 770 769 769 770 770 768 768 768 766 771 778 777 773 775 778 779 780 779 777 774 772 771 773 776 777 782 785 783 779 779 781 782 784 788 793 797 799 800 801 802 803 803 804 806 808 809 810 811 813 815 817 819 821 822 823 823 823 822
745 749 747 742 741 736 730 733 737 737 737 742 745 743 748 757 760 764 774 784 792 795 791 790 793 789 783 779 774 771 771 772 773 772 771 772 770 772 780 781 775 773 777 781 783 784 780 774 773 773 773 776 778 781 783 782 781 781 783 785 786 789 793 795 796 798 799 801 802 803 804 806 807 808 810 811 813 815 817 819 820 822 823 823 823 823
746 752 752 743 741 740 736 742 753 751 741 739 741 743 747 755 760 764 772 776 780 793 797 791 791 787 778 776 774 770 772 773 773 774 774 776 776 776 778 779 776 775 779 785 786 784 778 775 775 774 775 777 778 780 781 781 782 783 784 786 787 788 791 793 795 796 798 799 801 802 804 806 807 809 810 811 813 815 816 818 820 821 823 823 824 823
746 753 755 746 742 747 749 751 756 754 749 747 749 752 755 760 763 764 774 779 775 783 794 792 791 786 774 772 772 769 771 773 773 775 776 778 779 779 779 778 777 778 782 786 787 783 779 777 778 778 778 779 779 780 781 782 784 784 785 786 787 788 789 791 793 795 797 799 801 803 805 807 809 809 809 810 812 814 816 818 819 821 822 823 823 823
745 751 754 750 748 753 754 751 749 749 750 751 755 762 765 765 766 766 777 786 778 778 787 789 791 785 772 771 773 769 770 773 773 774 775 777 776 777 779 780 779 780 782 784 783 782 781 781 781 781 781 781 781 781 782 783 784 785 786 787 788 789 790 792 794 796 798 800 803 805 807 808 811 811 810 810 812 814 816 818 819 819 820 821 822 822
742 747 752 754 756 758 755 751 751 750 749 751 756 765 767 765 765 766 772 780 779 783 787 785 786 781 770 772 773 769 771 772 772 772 772 774 774 773 776 779 780 781 781 781 780 781 783 783 784 783 782 782 782 783 783 784 785 785 787 788 789 790 791 793 795 797 799 801 803 806 807 808 811 813 812 811 812 814 816 818 819 819 819 820 821 822
741 748 753 756 759 760 757 754 754 751 751 755 760 765 766 765 767 768 771 773 776 782 784 783 787 780 769 772 773 770 772 773 773 774 773 775 777 776 778 780 781 782 783 782 780 782 784 785 785 785 783 783 783 784 785 786 786 787 787 789 790 791 792 794 796 798 799 801 802 804 805 805 807 809 809 810 811 812 814 816 817 818 819 820 820 822
741 752 756 758 765 770 768 764 759 756 758 763 766 768 767 767 767 769 773 772 773 780 780 779 786 782 772 774 774 772 774 775 776 777 775 777 778 779 781 783 783 785 787 786 783 783 785 786 786 786 784 784 783 783 784 785 787 788 788 790 790 791 793 795 797 798 799 800 801 803 804 804 806 807 808 809 810 812 813 814 815 816 818 819 819 820
742 754 755 756 768 776 776 773 767 765 768 771 771 770 769 768 766 766 771 770 772 783 782 776 780 780 776 777 777 775 776 777 779 780 778 778 779 780 782 783 784 786 787 787 786 786 786 786 787 787 786 786 785 785 785 785 787 788 789 790 791 793 794 796 797 798 799 800 801 803 804 806 807 808 809 809 811 812 813 814 815 816 817 818 818 819
746 758 757 754 759 764 766 768 768 767 769 773 774 772 771 772 769 767 771 772 775 783 784 778 779 778 778 780 780 778 778 777 779 780 780 780 779 780 782 782 784 785 785 786 786 786 786 787 787 788 787 788 788 787 787 787 787 789 790 792 793 794 795 796 798 799 800 800 801 803 805 806 807 808 809 810 811 812 812 813 814 815 816 817 818 818
748 759 763 761 762 764 765 767 767 766 768 771 773 773 772 772 769 767 770 775 778 781 781 781 781 779 778 782 783 782 781 779 778 779 778 779 779 780 782 784 784 785 785 786 786 786 786 787 788 788 788 790 790 789 789 789 789 789 791 793 794 796 797 798 799 799 800 800 801 802 804 805 806 807 809 810 810 812 813 813 813 813 815 817 818 818
749 759 766 767 770 773 773 771 768 767 771 773 773 773 772 769 767 767 771 777 778 775 777 781 782 781 783 786 786 786 785 782 780 780 779 779 780 781 783 784 784 786 786 786 786 786 786 786 787 787 788 791 791 790 790 790 790 791 792 793 794 796 797 798 798 799 799 800 801 802 803 803 805 808 810 810 810 812 814 814 814 814 815 817 817 817
753 762 767 768 771 777 778 776 770 767 771 775 776 779 778 774 772 770 774 782 780 777 782 784 782 785 789 790 789 788 787 785 783 784 784 783 783 782 781 782 783 785 787 788 788 789 788 788 788 788 788 790 792 791 791 791 792 792 793 794 795 796 797 798 798 799 800 801 802 802 803 804 807 810 812 812 813 814 816 816 815 815 816 816 815 815
752 764 770 766 770 778 780 778 773 769 770 774 780 785 784 780 778 776 781 788 784 781 788 786 781 786 790 790 791 790 788 786 785 788 789 788 787 784 781 782 783 784 787 789 790 791 791 791 792 791 790 791 792 792 791 792 792 793 794 795 796 797 798 799 800 801 802 803 804 805 806 807 810 812 813 813 814 814 814 814 814 814 814 814 814 814
753 765 771 767 769 778 780 779 775 772 772 775 779 785 785 782 784 787 792 799 793 785 785 783 782 788 791 791 792 792 790 791 793 794 793 792 791 789 786 785 785 786 788 790 791 792 793 794 794 795 795 794 794 793 793 793 793 794 795 795 797 798 798 799 800 801 803 804 805 806 807 808 809 810 811 811 812 812 812 812 812 812 812 813 813 814
760 762 766 768 770 776 783 782 776 773 775 779 783 789 792 791 792 795 801 808 806 797 789 785 789 796 797 795 795 796 795 796 798 798 797 796 795 793 792 791 790 790 791 793 794 793 794 795 795 796 797 797 796 795 794 794 795 795 796 796 797 797 798 798 799 800 802 803 804 805 806 807 807 808 809 810 810 810 810 811 811 811 812 812 813 814
765 760 765 771 769 775 785 783 776 777 782 788 793 795 796 795 793 797 807 812 810 805 800 798 800 802 801 800 800 800 801 801 802 801 800 799 798 797 796 796 795 795 795 795 795 794 794 795 796 796 797 797 798 798 797 797 796 796 797 797 797 797 798 798 799 800 801 802 803 804 805 806 807 807 808 809 809 809 810 810 810 811 812 812 813 813
764 762 769 774 772 780 788 783 780 787 792 797 802 800 798 800 798 801 810 813 810 808 807 805 806 804 802 803 804 803 804 804 803 802 802 801 801 799 798 799 799 799 799 798 799 798 797 796 797 798 799 798 799 800 800 800 799 799 799 798 798 798 798 799 799 800 801 802 803 804 804 805 806 807 808 808 809 809 809 810 810 810 811 812 812 813
763 764 771 777 780 786 788 782 784 796 801 802 804 802 800 801 796 794 803 811 811 810 809 808 808 807 804 805 804 804 805 804 802 803 804 804 803 802 801 801 801 801 801 801 801 801 800 799 800 801 802 802 801 801 802 803 803 802 801 800 800 799 799 800 800 801 802 802 803 803 804 805 806 806 807 808 808 809 809 809 810 810 811 811 811 812
763 765 767 773 781 785 786 789 797 805 806 803 803 803 803 802 798 795 803 811 813 812 812 810 809 808 806 805 805 805 805 803 803 805 806 806 806 805 804 803 803 802 802 802 802 802 801 801 803 804 805 805 805 804 803 803 803 804 804 803 802 801 801 801 801 802 803 804 804 804 804 805 805 806 807 807 808 808 809 809 810 810 810 811 811 811
763 764 763 768 780 786 787 795 806 810 807 803 803 805 803 804 805 801 803 810 812 811 813 812 809 810 809 806 806 806 804 804 809 811 810 809 808 807 805 805 804 803 803 803 803 803 802 802 803 803 804 804 804 804 804 804 804 806 806 806 805 803 803 802 802 803 804 804 805 805 805 805 805 806 806 807 808 808 809 809 809 810 810 810 811 811
766 768 766 767 779 786 781 784 797 804 806 807 808 805 802 805 807 802 802 810 813 812 813 812 810 811 811 809 808 806 804 809 816 816 812 811 811 809 808 807 805 805 804 804 804 804 803 804 804 803 803 803 803 804 804 804 805 806 807 807 806 804 804 804 803 804 804 805 805 806 806 806 806 806 806 807 808 808 808 809 809 809 810 810 810 811
772 774 774 774 781 785 782 787 801 809 810 811 809 805 804 806 805 801 804 811 813 812 813 812 811 812 813 812 812 809 809 813 817 815 813 814 813 812 811 809 808 807 806 805 805 805 804 804 804 804 804 804 804 803 803 803 804 804 805 805 804 803 803 804 804 804 805 805 805 805 806 806 806 806 806 806 807 808 808 809 809 809 810 810 810 811
785 784 785 786 789 790 791 801 814 816 811 809 808 806 806 805 803 804 808 811 812 812 814 813 812 813 813 813 813 814 815 816 816 815 815 815 814 812 812 811 810 809 808 807 807 806 805 805 805 804 804 804 804 803 802 802 802 802 802 802 802 801 801 802 803 803 803 804 804 804 804 804 805 805 805 806 807 808 808 809 809 809 810 810 810 811
797 796 795 797 799 799 801 809 817 817 812 809 808 806 804 804 807 810 811 811 811 813 814 814 814 814 814 814 815 816 817 816 817 817 816 815 814 813 812 811 810 809 809 808 807 807 806 805 804 804 803 803 803 802 802 801 801 801 800 800 800 800 800 800 801 801 802 802 802 802 802 803 803 803 804 805 806 807 808 808 808 809 809 809 810 810
804 803 803 804 805 805 807 812 818 819 815 810 807 807 807 809 812 814 812 813 813 814 814 815 815 815 815 815 816 817 817 817 817 816 815 815 814 813 812 811 811 810 810 809 808 808 807 806 805 804 803 803 802 801 801 800 800 800 799 799 798 798 798 799 799 799 800 800 801 801 801 801 801 802 803 804 804 805 806 807 807 808 808 808 809 809
804 804 806 809 809 809 812 818 821 820 817 812 810 812 814 814 814 813 813 814 815 814 814 814 815 816 815 815 815 816 816 816 815 815 815 814 813 813 812 811 810 809 809 809 808 808 807 806 805 804 803 802 802 801 800 799 798 798 797 797 797 797 797 797 797 798 798 799 799 799 799 799 800 800 801 802 803 804 804 805 806 806 807 807 808 808
806 804 806 810 813 814 816 819 819 818 817 815 813 814 815 814 814 813 813 814 815 814 814 814 814 815 815 814 814 814 814 814 814 814 814 813 812 812 811 809 809 809 808 808 808 807 807 806 805 804 803 802 801 800 799 798 797 796 796 795 795 795 795 795 795 795 796 797 797 798 798 798 798 798 799 800 801 802 802 803 804 804 805 806 806 807
807 805 806 809 813 815 815 816 817 817 818 817 815 815 815 814 814 814 814 814 815 815 815 815 814 814 815 814 814 813 813 813 813 813 813 813 812 811 809 809 808 808 807 807 806 806 805 804 804 803 802 801 800 799 799 798 797 796 795 794 794 794 794 793 793 793 794 795 795 796 796 796 797 797 798 798 799 799 800 801 801 802 803 803 804 805
807 806 807 810 813 816 818 818 818 817 818 818 817 816 816 815 815 815 815 815 815 815 815 815 815 815 815 814 814 814 813 813 813 812 812 812 811 810 810 808 807 806 806 805 804 804 803 802 801 801 800 799 799 798 797 796 796 796 795 794 793 793 793 793 792 792 792 792 793 793 794 794 795 795 796 796 797 798 798 799 799 800 800 801 802 802
808 806 809 812 815 818 819 818 817 818 819 819 818 817 817 817 817 816 816 816 816 815 816 815 815 815 815 814 814 814 813 813 812 812 811 811 811 810 809 808 807 807 805 804 803 803 801 800 800 799 798 797 797 796 796 795 794 794 794 793 793 792 792 792 792 791 791 791 791 792 792 792 793 793 793 794 795 795 796 796 797 798 798 799 799 800
811 809 811 816 819 822 820 817 817 818 818 817 817 817 817 817 817 816 816 816 816 815 815 815 815 815 814 813 813 813 812 812 811 811 811 810 809 809 808 807 807 806 805 804 803 802 800 799 798 797 796 795 795 794 794 793 792 792 792 791 791 791 791 791 790 790 790 790 790 790 790 790 790 791 791 792 792 793 793 794 795 795 796 796 797 797
811 812 815 817 820 822 820 816 816 817 816 815 816 816 817 817 817 816 816 816 815 815 815 814 814 813 813 813 813 812 812 812 811 811 810 809 808 808 807 806 805 804 803 803 801 800 799 798 797 795 794 794 793 792 792 791 790 790 789 789 789 789 788 788 788 788 788 787 787 787 787 787 788 788 789 789 790 790 791 792 792 793 794 795 795 795
811 812 814 814 816 817 816 814 816 818 816 815 815 816 816 817 816 816 815 815 815 814 814 814 813 812 812 812 812 812 812 811 811 810 810 809 808 807 806 805 804 803 802 801 800 799 798 797 796 794 793 792 791 791 790 789 788 787 787 786 786 786 785 785 785 785 785 785 784 784 784 785 785 786 787 787 788 788 789 790 790 791 792 792 792 793
Wind_Speed
3 2 2 4 6 7 7 7 7 4 5 4 2 3 5 4 4 6 5 6 1 5 1 2 6 5 6 8 8 7 6 6 7 6 7 8 7 8 9 8 8 7 6 10 15 18 22 23 23 25 24 23 25 28 27 21 18 21 20 19 17 14 15 15 15 15 14 14 14 12 12 10 9 10 9 9 9 8 7 7 6 5 5 6 5 4
3 3 7 9 9 8 5 5 4 3 3 3 3 4 4 3 5 6 4 7 4 5 3 2 7 4 4 5 5 9 9 8 10 11 10 10 8 7 8 8 7 5 6 10 12 16 21 21 20 23 24 23 24 27 25 20 17 20 21 19 18 16 16 16 15 16 16 16 15 14 13 12 11 11 10 11 10 9 9 8 6 5 6 6 5 3
2 3 10 9 5 3 3 5 4 1 2 2 2 2 2 2 4 6 5 7 5 5 1 3 5 1 3 4 5 6 9 8 11 13 12 12 10 9 9 9 9 7 7 9 10 13 18 20 20 22 25 24 24 22 19 18 17 20 22 19 18 19 18 16 16 18 18 16 14 13 13 13 13 12 12 12 12 11 9 7 6 6 6 6 5 4
1 7 9 5 6 5 2 2 4 1 1 2 2 2 2 3 1 3 5 7 6 4 1 3 4 3 5 3 5 5 2 1 5 8 7 9 10 10 10 11 11 11 11 10 10 11 15 18 19 21 23 23 22 21 19 19 18 21 23 21 20 21 21 20 19 19 19 17 15 14 14 14 15 15 15 14 13 11 9 7 6 6 6 6 5 4
6 10 5 3 5 6 3 2 5 3 3 3 3 4 3 3 2 3 5 5 4 5 4 5 5 5 5 2 3 4 3 3 3 4 4 5 4 3 5 8 10 11 12 13 12 12 12 15 18 20 22 21 21 22 22 22 21 22 24 23 22 23 24 23 22 20 19 19 18 19 18 17 17 17 16 15 13 11 10 9 8 7 7 6 6 6
9 8 2 1 1 4 4 4 5 7 3 4 3 6 7 5 4 3 4 5 4 5 4 5 5 4 5 2 4 3 2 1 3 6 6 4 3 4 5 6 7 8 9 11 12 11 11 13 16 18 19 18 18 19 20 21 22 24 26 26 25 26 25 24 22 21 20 20 21 22 21 20 20 18 16 15 14 12 11 10 10 10 9 8 8 8
5 4 2 3 3 4 4 4 5 7 5 2 4 6 6 6 3 1 4 5 2 1 3 4 5 3 5 2 4 3 5 6 3 5 6 5 5 5 6 6 6 7 7 7 8 8 9 12 15 16 18 19 19 19 20 21 22 25 27 28 27 26 25 24 22 21 22 22 22 22 22 21 20 18 15 14 14 14 13 12 11 11 10 9 9 9
3 4 4 3 4 5 4 3 6 8 7 3 4 5 8 6 4 3 5 4 1 2 3 5 4 2 3 3 4 2 4 5 5 7 6 6 7 5 6 6 6 8 8 7 8 9 10 13 16 16 19 21 21 23 24 25 26 28 29 28 27 25 24 24 23 22 22 23 23 22 21 19 17 16 15 15 14 14 13 12 11 9 8 8 7 8
2 2 1 4 4 4 4 5 7 9 4 6 5 7 6 6 5 5 6 3 2 2 3 6 4 2 4 4 4 2 4 3 7 9 8 8 8 7 7 6 6 7 7 8 10 11 11 15 18 20 24 26 27 30 31 31 31 31 30 28 26 26 26 25 24 22 22 23 24 23 21 18 15 14 15 16 14 13 13 11 9 8 7 7 7 8
3 4 5 6 3 4 6 4 8 9 3 4 5 6 4 4 4 4 5 3 3 3 3 6 3 2 4 5 4 4 4 1 6 8 8 8 7 7 8 7 8 7 7 8 9 10 13 18 22 23 23 20 20 26 30 33 33 30 29 29 28 28 27 26 25 23 23 24 25 24 21 19 16 15 17 17 15 13 12 11 10 9 9 9 9 10
5 2 3 4 4 6 4 3 5 7 4 2 5 5 5 5 5 4 3 4 4 2 5 7 3 3 1 5 2 1 1 3 6 6 6 5 6 7 8 8 9 8 7 7 7 8 11 16 18 18 18 13 13 17 20 25 30 29 29 29 29 28 27 26 24 22 22 24 26 25 23 21 18 18 19 18 16 15 13 13 12 11 11 12 12 12
6 3 1 3 4 3 3 2 0 1 2 4 5 4 2 2 4 4 4 4 4 2 6 6 3 4 2 4 4 3 5 5 5 6 7 6 9 8 7 8 8 8 7 6 7 7 7 10 12 16 21 22 24 25 22 23 29 29 28 30 30 28 25 22 21 22 24 26 28 26 24 23 21 21 21 20 18 17 15 15 14 13 13 14 13 12
3 2 2 5 3 2 5 2 2 5 5 5 5 5 3 1 3 1 3 1 2 3 3 3 2 1 3 5 5 6 6 5 4 4 3 4 8 9 8 7 7 6 7 6 6 7 6 7 10 16 22 24 27 30 28 26 28 29 30 32 30 25 22 22 23 26 28 30 30 28 26 24 23 22 22 20 19 18 17 16 16 15 15 15 14 14
2 5 5 4 3 0 5 5 2 2 2 4 4 4 3 2 2 1 3 1 2 3 2 3 2 1 3 4 4 6 6 4 3 3 3 3 2 6 8 7 7 6 6 6 5 7 7 8 11 16 17 15 14 20 26 27 27 30 31 27 23 22 23 26 28 30 31 30 29 27 26 25 24 24 22 21 20 19 17 17 16 15 15 14 14 14
2 3 3 2 1 1 2 4 5 5 3 3 4 5 5 4 4 3 3 3 3 2 2 4 1 2 2 3 4 6 5 2 7 8 8 8 6 5 6 6 7 7 6 5 4 3 3 5 11 10 11 13 8 9 18 25 27 29 24 19 20 22 25 28 27 27 27 28 27 26 26 26 25 24 22 20 20 19 18 17 16 15 14 13 12 13
4 3 6 4 2 2 1 1 4 6 2 2 2 5 3 4 5 2 2 5 4 1 1 2 1 2 3 3 5 4 3 6 9 9 11 10 8 8 7 6 6 6 5 4 3 4 4 3 4 13 18 14 13 10 14 23 28 27 19 19 25 29 28 21 13 14 19 23 27 27 27 27 26 24 22 21 21 20 19 17 16 15 13 12 11 11
3 4 6 4 2 2 1 2 3 4 1 1 2 3 4 4 7 5 1 1 3 3 2 1 2 1 1 3 6 5 6 7 8 9 10 9 9 10 8 7 7 7 6 6 5 5 5 3 1 14 21 20 18 14 15 21 26 26 21 24 29 29 27 18 12 17 22 22 25 28 29 28 27 25 24 23 22 21 19 17 16 15 13 12 11 11
4 2 6 2 1 1 1 2 5 4 3 3 2 4 2 3 5 5 2 3 4 2 3 2 3 2 2 1 5 6 4 4 6 7 7 8 10 10 7 5 8 9 8 8 8 5 2 3 4 10 19 23 23 23 22 20 21 21 20 24 25 24 27 27 25 27 26 22 23 26 29 30 29 27 25 23 23 21 19 17 16 15 14 12 11 11
4 1 7 2 2 4 4 5 5 5 2 3 2 2 2 3 1 1 2 2 1 2 3 3 0 3 3 2 3 2 3 2 3 5 6 6 7 8 7 4 7 10 8 6 4 1 1 6 7 6 13 18 21 23 22 18 16 16 16 19 21 21 24 29 30 28 24 22 22 24 28 31 31 29 26 23 23 22 20 18 16 16 14 12 11 11
3 3 4 4 2 3 6 5 2 5 5 3 3 3 2 3 4 2 2 3 3 3 2 2 2 1 4 4 4 5 6 5 5 5 5 5 5 5 5 5 6 8 7 3 2 1 3 8 7 5 9 13 16 18 17 16 14 14 14 15 17 18 20 24 28 28 26 23 21 22 27 31 32 30 25 23 22 22 21 20 18 16 15 13 12 11
3 4 3 5 4 3 2 1 4 4 1 3 4 4 3 2 2 2 1 1 3 4 3 1 0 4 5 3 5 6 6 5 6 6 5 5 5 5 4 5 6 6 6 4 2 2 5 8 8 6 7 10 13 14 14 14 14 13 13 13 14 16 19 23 26 26 24 21 20 20 23 28 32 29 25 22 22 22 23 22 20 18 16 15 14 13
2 3 3 2 3 3 2 4 3 4 4 4 3 1 0 2 3 3 1 1 2 4 4 4 2 5 5 2 4 5 6 5 6 8 7 6 7 6 4 4 6 6 5 5 4 4 6 7 7 7 8 10 12 13 14 14 13 13 12 12 13 15 18 19 20 21 20 17 16 15 18 23 27 26 24 23 22 23 23 23 22 21 20 19 18 16
3 4 3 1 0 1 4 5 3 1 5 7 4 1 2 3 3 4 3 3 2 3 2 4 2 5 5 3 3 4 4 5 6 8 8 7 7 8 7 5 5 6 5 6 6 5 6 7 7 8 9 11 11 11 12 11 10 11 10 11 12 14 16 17 16 16 15 14 12 11 14 19 21 22 23 23 23 21 20 20 20 19 19 20 19 19
2 4 3 1 2 3 4 5 5 4 6 6 3 1 3 2 2 5 5 3 4 3 2 4 1 5 5 3 0 2 2 3 4 5 7 7 3 5 6 4 4 5 3 4 6 6 7 8 8 8 9 9 9 8 8 8 7 7 8 10 11 13 15 16 15 13 11 13 14 12 14 18 20 23 25 23 22 20 18 17 16 14 15 16 16 16
1 2 3 3 2 4 4 4 5 5 4 3 2 4 3 3 3 2 2 3 3 4 4 5 2 6 5 4 3 4 5 5 3 3 6 7 5 5 4 3 4 4 2 2 5 6 7 7 7 8 8 8 7 6 5 6 7 8 8 8 10 13 14 14 14 13 11 13 15 15 16 18 19 21 23 22 20 18 16 15 14 14 15 17 16 15
2 3 4 5 4 2 2 2 3 1 2 1 2 5 4 5 4 2 2 4 1 3 4 5 5 5 4 3 3 4 6 6 4 3 4 5 6 6 6 6 6 6 6 6 6 6 5 6 7 8 9 8 8 7 6 5 6 8 8 8 9 11 12 12 13 12 11 12 15 16 16 16 15 16 18 18 16 13 12 12 12 12 15 17 17 17
4 3 2 5 6 5 5 4 4 3 3 1 1 4 5 3 4 4 4 2 2 3 1 3 5 3 1 1 2 4 6 7 5 5 5 5 7 7 7 7 6 6 7 7 6 7 6 6 6 8 10 10 9 8 7 5 5 6 8 8 9 11 12 12 13 13 12 12 13 13 12 11 11 10 11 12 12 11 11 12 13 12 13 14 15 15
5 3 1 5 4 1 4 2 1 2 5 4 3 2 4 3 5 6 3 2 3 5 1 6 2 5 4 3 2 3 5 6 7 8 8 7 7 6 5 5 5 5 5 6 6 7 7 7 6 9 12 12 11 11 10 8 6 4 5 6 9 11 12 12 12 12 11 10 11 10 8 10 11 8 8 10 10 10 11 12 13 14 14 14 14 15
6 2 1 4 5 4 4 3 1 4 4 3 4 4 1 3 5 5 3 3 6 5 4 4 4 4 3 3 4 5 4 4 4 4 3 3 4 4 5 5 5 4 3 5 6 7 8 8 7 10 14 14 14 15 15 13 11 9 6 5 6 8 7 6 6 6 5 5 6 5 4 6 8 8 10 12 12 14 15 15 16 19 20 18 18 18
4 1 1 4 5 5 5 3 4 6 5 3 3 2 1 1 3 4 2 1 5 5 4 6 7 2 2 2 4 5 4 2 1 4 5 4 2 3 6 6 6 5 3 2 3 2 3 5 6 10 15 16 16 17 18 18 18 16 14 11 9 8 6 4 4 4 4 3 3 3 3 5 7 9 11 11 11 14 16 17 18 19 18 16 14 14
4 1 0 3 5 3 5 5 5 6 5 5 5 5 3 2 3 4 4 3 3 3 3 6 8 3 3 2 4 5 4 5 6 7 6 5 5 2 2 3 4 6 5 5 4 4 3 3 3 5 10 14 15 17 18 19 19 19 18 16 15 13 11 10 9 8 7 6 5 4 5 8 10 11 11 10 9 9 9 9 9 8 8 7 7 8
4 2 1 5 4 1 2 3 3 4 7 6 5 6 4 3 3 3 3 3 1 2 4 5 6 1 3 4 6 6 8 9 8 7 6 6 7 6 4 2 2 5 6 6 6 6 6 5 5 5 4 7 10 13 17 18 19 19 18 16 15 14 13 12 12 11 10 9 8 6 5 5 6 5 5 4 3 2 2 3 3 2 2 1 1 1
3 4 2 3 3 3 3 1 2 4 6 3 3 2 1 4 6 5 5 5 4 2 4 3 3 2 3 4 6 8 9 10 8 6 6 6 7 7 6 5 4 5 7 7 7 7 7 6 8 10 9 5 5 8 12 15 17 16 15 14 13 12 12 11 9 8 8 8 7 7 7 6 6 5 5 5 5 5 5 5 6 6 6 5 5 3
2 4 3 2 3 3 5 3 4 3 1 4 5 3 3 5 9 9 5 5 6 4 2 2 1 3 4 5 6 8 8 7 6 6 6 6 6 7 8 7 6 6 7 8 7 7 8 9 12 14 14 12 8 5 8 12 15 15 13 13 12 11 10 9 8 6 6 6 6 5 5 5 5 5 4 4 4 4 4 4 5 5 5 4 4 3
2 3 2 2 3 2 2 5 3 2 4 2 2 3 5 6 11 14 8 5 6 6 4 5 6 5 4 4 5 7 7 6 6 8 8 7 6 6 7 7 7 7 7 7 7 7 10 14 16 17 17 17 15 12 9 9 12 14 14 13 12 12 11 10 10 8 7 6 5 4 4 3 3 2 1 1 1 2 2 3 3 3 2 2 2 2
4 3 3 2 3 2 1 3 2 5 3 0 4 4 3 2 5 10 8 7 7 6 4 5 5 5 4 4 2 2 3 3 6 9 9 8 7 7 6 5 5 5 5 6 7 7 10 15 16 16 15 15 16 17 14 11 8 9 11 12 12 12 12 12 11 11 9 8 7 6 6 5 4 3 2 1 1 1 1 1 1 1 2 2 2 2
6 4 2 2 2 3 3 2 1 1 1 2 3 2 1 1 3 3 5 3 4 4 3 3 5 6 5 4 5 4 3 4 7 7 8 9 8 6 6 6 6 5 4 4 7 7 6 4 4 6 6 3 6 10 11 11 11 10 7 6 8 8 8 9 9 9 8 7 6 6 6 6 6 5 5 4 3 2 2 1 1 1 1 2 3 3
4 4 4 4 2 3 5 3 1 2 3 5 4 4 2 4 5 3 5 1 3 4 2 2 4 5 5 5 5 4 3 5 6 5 7 8 8 7 8 9 10 11 9 7 5 5 7 7 7 8 7 4 3 3 3 4 6 7 8 6 5 6 5 4 5 5 5 4 3 4 4 4 4 4 4 4 4 3 3 2 2 2 3 3 4 5
6 2 3 4 2 2 5 4 3 3 4 5 6 6 6 4 4 3 5 0 2 4 2 3 5 4 4 4 4 3 4 4 2 3 5 6 7 7 7 9 13 15 15 15 13 8 5 4 3 4 5 5 5 5 5 5 4 5 6 7 7 8 8 7 5 4 4 3 1 0 1 2 2 3 3 4 4 3 2 2 2 3 3 4 4 5
7 4 4 4 2 2 4 3 2 2 2 3 4 6 7 4 2 5 2 3 1 2 2 3 6 4 4 4 5 5 5 3 2 3 4 5 7 7 8 9 11 14 15 17 17 14 11 9 7 6 4 3 4 5 7 11 12 12 12 12 12 12 12 12 10 7 5 5 4 3 2 1 0 1 3 4 4 2 1 1 2 3 4 4 5 5
4 3 3 3 3 2 3 3 1 1 1 3 5 6 7 4 2 4 4 5 3 2 1 3 5 3 4 5 4 3 1 2 2 3 5 5 5 7 9 11 11 13 14 15 16 16 16 15 13 11 10 10 11 11 8 10 15 15 14 13 13 14 14 13 11 10 8 9 8 7 5 4 3 1 0 1 1 1 2 3 4 5 5 5 6 6
3 3 2 2 2 3 3 3 1 0 1 5 7 5 2 0 2 3 4 3 4 4 2 2 3 2 3 4 3 1 2 3 2 3 4 4 4 5 9 12 13 14 14 14 14 16 16 16 15 15 14 14 14 14 11 8 11 14 15 15 14 13 13 11 10 9 9 10 10 9 8 7 6 5 4 3 3 4 5 5 5 6 6 6 6 6
2 1 2 2 1 2 3 3 2 1 3 7 6 3 3 2 2 2 1 2 3 3 3 2 2 2 3 3 1 1 2 3 3 3 4 4 4 4 7 9 10 11 11 11 12 13 13 13 14 15 15 15 15 15 14 10 9 12 14 16 15 13 12 12 11 10 10 11 11 11 10 9 8 7 6 6 6 6 6 6 5 6 6 6 6 6
2 1 1 1 1 2 2 1 2 1 3 6 3 2 2 2 1 3 3 2 1 2 3 3 1 2 3 4 2 1 0 1 3 4 4 4 5 5 6 8 9 10 11 11 11 12 12 11 12 13 14 15 15 14 14 13 12 12 13 15 14 13 13 15 14 13 13 13 12 11 11 10 10 9 9 9 8 7 6 6 6 6 7 7 6 7
2 1 3 1 1 2 2 2 2 2 3 4 3 3 1 2 2 3 4 2 1 1 2 3 2 3 3 4 4 3 2 2 3 3 3 4 4 5 7 8 9 10 11 12 13 13 13 12 12 12 13 13 13 13 13 14 14 13 12 14 15 14 14 14 13 13 13 13 12 11 11 11 11 11 11 10 10 10 9 9 9 9 9 8 8 8
2 2 3 3 2 3 4 3 3 2 0 2 3 2 3 4 3 3 4 2 1 2 1 1 3 4 3 2 1 2 3 3 3 4 4 4 4 6 9 11 12 12 12 12 13 13 13 12 12 12 12 12 12 11 11 11 12 13 11 11 12 13 13 12 13 13 12 11 11 10 10 10 10 10 10 11 12 12 12 12 12 12 12 12 11 11
3 2 4 3 2 3 2 1 1 2 1 0 1 3 4 5 3 2 3 1 2 2 1 2 3 3 2 1 1 2 4 4 4 5 5 3 4 6 9 11 14 15 14 14 13 13 13 12 12 11 11 12 12 11 10 9 9 10 11 9 7 7 8 9 10 12 12 12 11 10 10 10 10 10 11 12 13 13 13 13 14 14 15 14 14 14
2 2 3 3 2 2 2 3 2 1 3 2 2 2 1 1 2 2 2 1 1 1 2 2 3 3 2 2 3 4 5 5 4 5 5 4 4 6 8 9 11 11 11 12 13 13 13 13 14 13 13 14 13 12 12 12 12 12 13 12 10 9 9 9 9 10 11 11 11 11 12 13 13 14 14 14 15 14 15 15 15 16 17 16 16 16
1 2 1 3 3 2 1 2 2 2 3 3 2 1 1 2 1 2 3 2 2 3 3 4 3 4 4 4 5 5 5 5 5 5 5 4 5 6 7 8 9 10 11 12 13 13 13 13 13 14 14 15 13 12 13 14 15 16 15 15 15 13 13 13 13 13 14 14 14 14 15 15 16 16 16 16 16 16 16 17 17 17 17 16 16 16
2 2 1 3 4 0 3 2 1 2 2 4 3 2 3 2 1 1 3 3 3 3 4 4 6 6 4 3 2 3 3 4 5 4 4 5 6 7 8 10 11 12 13 14 14 14 13 12 11 12 12 13 12 12 12 14 15 17 18 17 18 17 16 16 16 16 17 17 18 18 17 17 18 17 17 17 17 17 17 17 16 16 16 16 16 16
3 3 3 4 4 4 6 5 4 3 2 5 4 4 4 3 2 1 3 3 4 5 5 5 5 6 4 2 4 3 1 3 4 5 4 5 7 9 10 12 14 14 15 16 16 16 15 14 13 13 13 13 12 12 12 13 14 16 18 19 20 20 19 19 18 18 18 18 18 18 18 18 18 18 17 17 16 16 16 15 15 16 17 17 18 18
Wind_Direction
113 130 243 214 221 225 213 190 197 200 158 170 184 191 240 258 278 277 278 298 5 94 8 198 156 154 160 161 156 141 116 117 136 147 160 171 173 177 177 178 178 173 158 139 147 160 167 176 180 177 183 187 191 199 201 205 205 190 178 172 172 186 200 202 198 194 192 190 190 193 194 187 171 163 156 145 144 144 137 131 130 129 137 142 137 136
86 158 231 222 220 219 190 176 202 204 150 149 172 207 272 260 267 281 280 308 360 90 335 20 114 139 176 188 180 146 146 163 164 165 176 182 181 184 181 177 175 157 131 132 149 172 176 179 184 181 185 194 200 202 201 207 204 186 178 172 172 183 191 195 198 193 192 193 192 191 192 187 173 170 163 152 149 146 142 140 138 141 151 157 155 153
30 240 245 233 209 190 150 144 157 168 118 118 164 181 301 275 284 303 306 321 2 84 319 8 92 172 267 273 257 189 175 183 178 175 176 177 177 183 184 177 171 151 140 150 162 178 183 184 186 185 189 196 201 203 202 204 198 181 176 175 179 183 183 187 189 186 187 189 190 186 180 176 168 163 158 153 150 149 149 149 152 161 164 165 167 167
286 251 239 201 148 164 225 161 133 58 46 162 168 113 281 287 348 314 312 327 349 41 106 100 80 307 312 324 274 253 224 142 177 179 167 176 185 188 188 179 171 162 158 163 167 179 187 186 186 188 190 191 194 198 197 197 192 177 175 180 185 182 178 178 176 177 179 176 174 170 163 164 160 155 155 154 153 157 159 153 147 156 160 157 162 169
244 250 222 127 131 159 211 206 151 179 272 260 199 148 199 259 225 234 295 328 347 8 50 82 50 331 340 8 253 279 351 57 144 175 171 198 208 179 182 182 175 169 164 168 174 181 184 184 187 188 187 186 186 188 189 190 187 177 177 183 185 180 176 175 173 175 176 170 164 157 152 153 151 151 155 156 155 159 161 153 141 140 149 152 154 158
255 259 210 173 161 141 182 220 183 175 216 301 240 188 184 189 208 255 340 19 35 6 360 57 58 300 321 322 244 280 279 163 153 187 191 191 196 164 173 187 177 170 171 172 175 178 180 180 183 184 183 180 179 182 185 185 184 180 179 181 182 178 176 177 178 181 181 175 169 162 157 154 151 152 156 156 152 151 150 145 140 138 143 149 149 150
259 287 107 179 174 127 161 222 209 162 139 306 248 191 156 135 136 76 43 56 79 299 322 58 108 240 318 313 255 276 218 207 184 200 200 179 192 184 176 187 173 166 172 170 169 174 175 175 178 182 181 178 177 180 183 182 185 184 181 182 183 180 180 182 183 186 186 181 178 175 171 167 163 160 158 154 149 145 142 140 141 139 139 144 144 145
245 327 38 127 127 122 144 211 203 144 120 241 237 141 124 126 148 144 88 83 178 243 328 15 91 158 309 275 274 315 186 221 224 208 213 200 198 182 171 186 175 167 168 165 171 176 176 180 181 179 179 180 180 181 181 183 187 186 184 186 187 185 184 185 185 188 190 188 185 182 180 177 176 171 159 152 148 145 145 143 144 143 144 148 148 149
235 301 243 157 120 137 183 205 181 139 128 239 207 135 134 154 163 139 102 89 9 30 321 328 30 105 279 273 302 22 125 223 249 225 216 208 198 176 167 175 170 167 169 171 176 176 177 182 181 180 182 184 184 184 183 185 188 187 186 188 188 187 187 187 190 193 195 195 191 187 185 181 177 171 160 157 155 154 155 154 152 153 153 154 157 160
248 220 195 156 141 202 217 207 163 147 172 229 158 119 77 80 94 85 100 107 40 53 232 284 336 117 274 292 332 18 82 232 263 255 238 213 190 166 161 166 168 163 166 177 180 179 180 183 184 182 181 183 187 187 186 186 187 186 187 188 188 187 188 191 195 197 197 196 194 191 189 184 177 167 163 164 164 165 168 166 159 156 151 148 150 153
294 277 168 147 184 207 196 165 158 163 176 127 102 82 43 35 42 45 54 89 69 4 248 261 275 118 253 288 303 347 310 276 259 276 274 221 168 159 166 167 167 162 163 172 171 176 181 181 180 172 167 175 190 198 201 191 184 185 187 188 189 190 193 195 198 201 199 197 196 195 193 188 180 172 169 171 173 175 180 176 165 159 155 152 149 147
336 357 188 231 213 167 111 110 123 41 78 86 80 79 82 347 16 28 354 45 88 259 254 259 295 92 142 267 277 275 294 289 241 244 257 208 164 159 167 164 164 160 156 159 161 166 167 166 167 161 167 179 183 193 210 199 183 185 188 189 191 193 195 198 202 205 203 200 200 199 196 192 184 179 177 179 180 182 184 179 171 164 160 160 158 154
327 242 279 303 268 125 102 140 318 4 35 81 84 73 92 2 7 7 312 7 153 235 247 260 293 117 203 245 280 309 317 309 259 222 240 212 166 153 154 157 154 143 141 152 161 162 164 166 169 170 174 181 183 188 199 195 182 184 190 192 191 189 192 200 208 209 204 202 201 199 196 192 186 183 183 185 186 188 188 184 179 174 167 166 168 165
304 308 329 337 309 35 124 150 216 337 58 121 129 113 121 103 67 271 270 295 248 251 253 262 243 224 281 270 297 316 303 310 11 58 56 29 119 138 138 140 132 121 130 148 160 170 179 179 181 183 172 164 178 189 189 186 183 187 192 187 177 179 192 201 204 204 201 200 199 197 196 193 189 186 185 190 192 191 192 191 189 186 177 173 174 173
130 314 295 187 260 299 145 169 171 149 131 174 165 131 139 152 144 204 226 189 225 247 265 281 252 153 216 270 297 296 289 24 58 57 57 47 35 72 93 101 109 108 109 121 136 150 171 191 182 160 115 116 150 195 188 184 186 191 187 164 160 181 197 200 198 197 196 195 195 195 196 196 192 188 187 193 196 193 193 197 199 195 185 180 179 178
127 231 255 250 244 148 123 228 148 111 71 250 152 106 139 187 149 131 180 173 176 157 295 286 238 195 222 289 307 300 342 43 64 63 61 58 42 53 66 67 79 83 85 97 111 93 55 313 188 116 104 140 179 195 195 189 188 191 178 160 178 192 193 191 186 186 192 195 196 197 198 196 194 190 190 194 197 195 196 201 204 199 191 186 184 184
113 246 274 309 330 125 160 220 122 100 120 226 152 158 208 176 122 104 140 94 79 105 258 256 154 304 342 327 324 354 28 32 55 72 76 78 64 53 48 47 59 56 46 42 31 52 68 347 172 126 138 172 191 192 201 196 190 191 183 178 188 189 182 179 178 192 200 201 200 199 196 195 195 193 193 196 197 198 200 205 208 206 201 195 189 188
138 247 288 357 74 289 258 115 68 62 112 121 194 204 185 90 93 101 110 22 42 137 268 315 148 171 130 192 319 354 32 31 52 77 89 97 94 84 70 70 84 81 65 52 37 12 27 62 73 132 155 177 189 193 201 196 187 189 188 189 189 176 175 186 194 201 206 204 202 200 195 195 197 196 196 199 199 198 201 205 208 212 211 204 195 190
122 202 290 302 170 299 348 69 46 351 17 125 189 189 107 98 116 89 127 127 100 181 277 329 273 191 182 217 286 287 211 167 85 83 83 85 96 105 114 117 102 96 89 81 85 22 359 62 65 119 151 168 182 189 194 187 180 182 182 189 190 177 178 192 198 203 209 208 204 202 199 199 199 198 198 198 198 198 201 205 207 212 214 208 202 197
92 135 269 287 248 320 6 52 58 311 327 12 28 22 38 126 156 167 145 148 151 166 225 314 354 246 225 215 208 223 226 193 145 111 88 76 69 86 114 107 82 85 88 92 137 149 64 60 61 100 140 159 172 179 183 179 175 180 181 184 188 185 187 196 199 202 208 210 206 204 204 203 201 199 197 196 197 200 204 206 208 212 215 214 211 208
56 115 213 288 325 29 27 113 171 193 287 18 28 13 357 30 120 145 84 84 131 139 175 174 347 268 255 212 188 204 212 188 154 127 103 85 70 61 73 89 90 96 110 134 156 76 66 62 64 90 136 157 166 170 174 174 173 177 182 182 183 184 185 192 200 205 210 212 210 208 209 208 204 199 196 194 197 203 206 208 210 214 218 219 219 219
95 126 170 285 7 63 220 244 215 191 157 115 92 38 123 135 120 123 110 313 106 125 163 156 173 264 261 220 204 196 180 172 154 136 127 123 122 116 100 104 117 123 129 136 116 79 72 71 78 100 126 142 154 164 171 175 177 176 176 177 177 176 176 182 190 197 204 208 209 212 214 212 207 202 197 194 197 203 207 211 214 217 222 224 224 225
131 104 109 144 112 165 247 286 337 99 107 94 88 112 138 126 104 122 178 229 119 108 139 120 127 263 263 248 220 197 177 172 162 149 142 144 144 137 135 139 137 142 153 144 122 105 102 105 108 110 114 125 138 153 164 169 176 178 175 174 176 175 174 176 177 180 188 189 185 198 207 205 204 205 202 197 198 204 210 215 219 220 223 226 226 227
87 88 86 300 303 336 324 329 2 41 68 63 30 29 76 70 113 147 178 180 139 150 138 96 122 256 277 309 205 134 118 126 144 148 140 135 123 120 130 144 139 139 165 149 126 124 125 122 119 111 109 116 124 134 145 142 144 156 161 164 173 179 178 178 176 172 176 178 180 191 194 190 196 203 201 198 201 209 213 216 222 227 231 233 230 227
74 119 105 80 13 6 1 342 350 3 31 61 341 335 22 64 76 115 137 80 108 186 158 126 200 250 279 340 43 96 102 104 111 138 141 142 147 146 142 145 139 136 162 158 128 128 134 128 119 113 110 110 112 113 111 105 105 117 135 152 165 174 178 176 175 174 173 176 184 193 187 178 184 193 194 194 200 206 210 212 218 223 228 231 226 224
120 128 117 118 136 152 164 220 236 282 359 25 343 344 13 50 50 63 100 75 108 196 140 139 197 245 297 8 75 112 116 110 110 130 145 156 161 164 164 165 167 163 163 160 142 132 128 120 116 116 114 111 110 106 96 87 89 102 120 140 155 166 172 167 166 171 174 174 180 186 179 169 170 178 184 189 191 190 196 205 207 210 219 224 223 228
105 76 88 128 147 178 179 196 213 158 100 96 4 1 1 16 56 85 91 81 171 154 131 224 201 177 228 221 158 164 149 141 150 157 163 179 179 179 177 169 166 162 159 154 146 140 128 124 125 119 117 120 122 118 112 98 85 97 119 140 154 163 167 165 167 174 180 183 184 183 179 177 179 179 184 191 191 188 199 211 214 215 226 234 234 239
96 53 40 105 89 142 153 143 279 117 110 137 142 50 359 4 62 84 108 169 139 118 226 266 209 143 195 246 260 236 195 167 170 174 178 186 184 177 164 154 148 144 146 141 138 141 135 134 137 127 127 134 136 134 129 118 106 104 122 141 155 162 165 168 174 180 185 190 193 194 203 210 212 224 240 241 240 241 242 242 237 231 234 240 244 248
107 87 116 99 58 39 64 65 89 101 88 103 125 118 74 50 84 114 165 177 135 137 210 218 122 136 220 295 321 291 265 221 196 192 188 164 143 134 126 132 137 132 144 150 149 154 150 148 153 142 139 144 147 142 136 129 120 115 119 137 157 165 167 168 169 171 172 179 185 188 206 221 229 250 264 262 260 256 251 246 239 234 236 242 249 254
105 61 55 100 79 45 26 28 91 100 89 70 69 74 67 63 102 121 123 120 118 131 178 141 103 72 275 296 319 314 298 240 67 20 10 23 50 137 140 137 131 119 114 120 117 135 149 149 158 153 149 154 157 150 141 135 128 121 119 122 130 137 135 126 126 141 153 154 151 157 179 202 210 217 224 226 229 232 231 228 227 228 234 244 255 262
85 115 290 83 83 27 358 21 63 89 109 97 44 11 20 69 55 50 40 22 60 95 144 118 94 41 336 15 6 358 28 66 56 31 17 9 353 345 138 142 136 125 109 88 75 62 59 73 102 146 155 160 161 154 145 139 135 129 124 121 122 122 119 114 111 116 129 131 127 145 181 198 201 203 207 212 219 227 229 227 227 231 242 256 268 268
66 120 38 65 91 255 324 50 69 75 80 72 29 2 17 82 85 51 45 19 10 161 148 110 105 105 320 13 37 38 49 59 50 27 20 16 6 7 9 7 80 108 96 77 67 62 55 52 50 56 105 150 154 147 141 138 135 132 128 126 124 124 124 120 112 110 112 112 111 113 127 154 173 182 187 188 180 167 160 154 146 134 119 105 118 239
80 124 136 92 120 245 289 17 78 64 57 20 301 304 5 111 111 84 43 12 359 113 141 146 169 239 322 12 52 56 52 55 47 29 24 20 21 28 26 26 62 94 92 83 72 68 67 63 61 62 65 82 122 133 132 133 133 131 128 127 126 126 126 122 115 114 115 110 106 100 96 99 107 111 114 112 105 99 100 99 98 100 97 91 87 78
55 104 137 127 128 233 289 349 41 49 57 262 265 234 183 142 113 97 63 4 2 27 106 148 27 9 19 46 72 73 62 53 44 33 34 34 33 41 44 46 57 73 84 87 81 76 78 72 65 65 66 66 68 92 119 126 128 128 127 127 125 121 117 112 109 116 126 123 113 104 99 93 96 104 105 101 94 79 77 91 98 98 94 84 73 57
71 95 125 95 109 173 324 32 54 249 230 240 350 70 122 124 107 99 79 25 18 20 30 49 27 10 27 47 73 90 83 70 59 42 32 29 31 44 52 49 52 62 72 75 62 49 58 61 54 49 50 50 48 50 68 95 114 122 125 124 122 118 113 108 103 103 111 117 110 101 100 99 104 117 117 106 89 62 78 102 97 76 53 33 30 11
141 131 142 112 109 145 74 75 164 231 236 315 358 32 91 71 74 85 63 15 8 9 14 40 26 9 27 22 10 80 74 55 56 42 24 18 22 37 51 48 52 62 70 85 90 76 58 54 52 51 48 40 37 41 40 37 58 96 113 117 116 112 110 107 100 96 94 94 93 92 90 88 85 79 63 33 352 350 71 89 48 21 359 354 355 346
154 136 143 158 158 147 128 120 160 204 221 234 307 334 114 306 309 109 99 12 349 2 6 46 34 17 23 8 333 324 344 28 47 27 5 5 8 22 43 42 50 64 68 93 119 126 105 79 93 106 103 51 28 39 32 22 27 34 42 71 93 97 104 106 98 91 83 77 78 80 80 81 78 71 61 46 35 30 30 30 22 15 2 342 331 329
148 155 169 179 192 115 104 104 106 142 208 226 257 282 274 263 257 170 113 65 338 4 9 93 66 29 21 13 347 334 9 49 47 355 337 351 352 2 25 23 26 36 39 41 65 112 129 145 166 158 147 156 140 93 17 360 16 9 354 355 21 37 47 69 83 84 70 59 65 70 67 68 66 61 48 30 22 10 351 344 338 331 326 318 318 321
50 69 127 132 144 117 121 142 169 179 218 241 253 277 297 277 239 105 82 68 326 358 345 107 85 55 42 28 8 31 74 70 37 307 318 336 335 346 12 13 16 24 26 25 26 31 60 89 114 118 117 144 168 189 221 237 254 278 280 280 299 325 333 328 325 341 356 354 343 30 35 39 41 41 38 27 17 358 329 316 316 322 322 322 326 331
29 22 54 84 91 115 126 137 159 174 232 269 269 288 308 295 149 102 103 230 208 1 312 111 93 73 64 46 25 49 83 123 200 276 308 323 329 346 6 8 9 14 19 24 27 25 27 29 28 31 27 357 327 298 253 239 244 250 249 252 262 271 273 270 268 271 278 269 251 241 242 221 104 44 43 40 38 40 18 319 323 330 332 336 339 340
15 9 47 88 80 60 94 103 92 187 263 308 304 302 308 308 118 126 204 218 156 119 215 114 105 99 78 70 65 66 89 215 233 290 314 332 339 349 5 13 15 13 16 25 28 24 23 23 21 19 14 7 2 352 316 266 256 255 255 255 253 247 244 243 241 242 247 246 236 229 228 227 226 235 308 20 20 308 276 283 299 310 317 324 325 324
12 1 16 65 53 29 78 107 105 184 311 322 308 297 307 86 165 192 212 188 134 142 173 112 106 120 90 79 105 154 275 294 306 314 323 336 338 342 357 8 15 14 13 17 19 15 11 8 5 4 2 1 1 359 351 317 274 264 262 257 251 245 239 234 235 241 242 236 230 227 224 225 226 226 232 237 234 238 251 262 274 286 296 303 304 300
26 29 10 17 27 32 56 78 95 121 319 326 324 330 31 81 164 181 109 83 106 145 152 112 89 124 109 76 50 295 322 338 337 329 324 321 326 342 349 353 360 2 2 6 5 2 360 357 354 351 347 348 351 353 355 344 308 287 275 263 259 260 251 243 245 246 236 229 228 224 219 218 221 224 229 232 229 229 238 250 260 273 282 286 284 277
11 100 122 335 359 68 78 70 100 149 299 325 9 79 27 355 152 129 93 74 98 148 133 110 109 204 150 119 113 186 210 327 314 314 322 320 322 332 335 338 345 347 349 350 348 346 346 343 341 339 334 333 338 342 348 348 334 312 289 274 272 269 260 257 257 248 235 226 220 216 217 218 221 228 231 230 228 226 230 240 254 266 271 270 264 255
354 135 141 115 57 89 124 147 143 177 274 333 45 105 89 4 24 93 106 118 186 198 160 143 172 222 193 154 159 191 212 245 268 270 276 288 300 310 316 323 329 332 334 334 334 336 334 326 324 324 321 321 324 327 333 341 338 321 297 282 275 263 251 249 246 233 223 220 217 218 221 219 217 223 226 225 225 226 229 237 245 251 252 250 246 242
335 76 97 95 88 76 65 59 84 117 298 358 23 48 58 42 24 73 96 89 302 285 268 195 196 218 220 194 187 239 260 274 284 280 272 273 289 307 316 320 322 325 326 326 330 332 329 321 316 313 310 312 314 313 315 326 331 326 314 296 275 253 235 227 222 213 209 213 217 218 218 214 213 216 218 218 221 224 229 235 239 241 242 241 239 239
310 50 81 91 102 93 75 36 109 124 177 323 36 22 23 21 7 41 83 75 300 291 274 245 228 228 247 305 301 263 270 282 290 293 297 297 295 306 313 315 317 322 326 328 332 334 331 326 321 315 311 310 310 308 305 301 304 311 315 310 289 259 239 230 223 216 213 215 217 218 218 221 224 223 222 223 224 226 229 233 236 237 237 236 235 234
300 55 84 95 87 103 192 243 261 249 255 241 139 108 56 28 24 26 39 29 341 321 275 248 229 216 233 267 238 225 253 270 260 262 282 285 272 279 290 295 302 312 320 323 325 327 325 322 318 313 309 307 309 308 302 293 288 289 293 295 291 280 269 262 254 245 238 232 229 230 232 234 235 234 231 230 228 229 231 232 234 235 235 236 237 235
42 40 84 105 68 41 315 305 339 327 286 299 353 17 237 188 112 27 1 7 16 345 316 297 262 227 221 244 242 224 240 264 258 251 263 270 273 283 295 305 311 314 318 319 319 318 314 311 309 308 305 305 308 305 296 290 287 285 284 285 283 277 269 265 263 260 255 250 246 243 240 237 236 235 234 231 230 231 233 233 234 235 237 239 240 241
70 51 69 88 79 68 249 244 174 153 246 279 294 291 263 232 151 48 348 335 319 294 284 286 287 280 277 289 276 222 232 272 289 286 278 286 308 320 328 334 332 328 327 327 325 320 314 307 304 303 301 302 304 301 295 289 284 281 279 278 275 269 263 260 260 258 255 251 247 243 237 232 231 231 231 231 232 231 231 232 233 234 236 237 238 241
132 167 164 130 149 212 228 219 177 147 224 257 251 250 255 237 187 205 268 260 256 261 246 232 255 278 292 354 47 69 59 330 343 346 327 319 329 334 335 335 332 327 325 325 323 320 315 309 306 304 303 304 305 304 302 296 287 278 274 270 267 263 257 254 253 252 250 247 242 236 232 229 229 229 228 230 232 232 233 235 237 238 240 241 242 243